Погода в Уймене

Россия / Республика Алтай     51°39′24″N   86°55′14″E
темп.,
°C
ветер,
м/с
пор.,
м/с
влажн.,
%
обл.,
%
осадки,
мм/ч
давл.,
гПа
погр.,
м
26 февраля, пт
пт2601:00−20юв1294100 0.1 102921
04:00−22ю128782 0.0 102920
07:00−23ссз118791 0.0 103327
10:00−22св1292100 0.1 1034432
13:00−18св2286100 0.2 1034624
16:00−19с3494100 0.5 1034583
19:00−22с12100100 0.9 103731
22:00−23вюв1198100 0.1 104020
27 февраля, сб
сб2701:00−24вюв0197100 0.1 104020
04:00−25вюв0196100 0.0 104119
07:00−25юв0096100 0.0 104119
10:00−22ссв1195100 0.1 1040165
13:00−17с2187100 0.1 1037417
16:00−16с2286100 0.1 1036553
19:00−19с1199100 0.1 103820
22:00−22ююв1196100 0.0 104020
28 февраля, вс
вс2801:00−24ююв118998 0.0 104120
04:00−24ююв118417 0.0 104220
07:00−24юв11818 0.0 104320
10:00−16в11800 0.0 1041109
13:00−10ссв228050 0.0 1036327
16:00−9ссв1285100 0.0 1034285
19:00−11в0193100 0.0 103421
22:00−12ююв2285100 0.0 103430
1 марта, пн
пн101:00−11юв2284100 0.0 103237
04:00−9юв2288100 0.1 103065
07:00−9вюв2287100 0.1 102780
10:00−6вюв2482100 0.0 1024271
13:00−1св1288100 0.1 1020223
16:000ссв1198100 0.0 1018199
19:00−2ююв1188100 0.0 101922
22:00−2ююв2286100 0.0 102061
2 марта, вт
вт201:00−2ююв2287100 0.1 102052
04:00−3юв1288100 0.1 101937
07:00−3ююв1288100 0.1 101841
10:00−1юв1289100 0.1 1017141
13:00+1ссв11100100 0.1 1015176
16:00+1с22100100 0.1 1013161
19:00−1ююв1199100 0.6 101222
22:00−1ююз1197100 0.8 101326